Location: Newark
(42.0667°N, 9.0833°E)
Time: 21:40:59
(UTC+00:00)

N. Korean satellite - Visible Passes

Search period start: 08 December 2019 00:00
Search period end: 18 December 2019 00:00
Orbit: 456 x 506 km, 97.2° (Epoch: 07 December)

Date Brightness Start Highest point End Pass type
(mag) Time Alt. Az. Time Alt. Az. Time Alt. Az.
08 Dec 9.7 04:21:40 10° NE 04:23:50 15° E 04:25:58 10° SE visible
08 Dec 7.3 05:54:10 10° N 05:57:19 30° WNW 06:00:24 10° SW visible
08 Dec 6.7 16:29:02 10° S 16:32:46 84° W 16:36:29 10° NNW visible
09 Dec 6.4 05:28:27 10° N 05:31:59 66° WNW 05:35:25 10° SSW visible
09 Dec 10.1 17:39:31 10° WSW 17:41:00 12° W 17:42:28 10° WNW visible
10 Dec 7.3 05:03:04 10° NNE 05:06:33 53° E 05:09:56 10° S visible
10 Dec 9.3 17:12:21 10° SSW 17:15:22 24° W 17:18:25 10° NW visible
11 Dec 8.9 04:38:04 10° NE 04:41:01 24° E 04:43:54 10° SSE visible
11 Dec 7.7 16:46:15 10° S 16:49:51 49° W 16:53:27 10° NNW visible
12 Dec 10.0 04:13:57 10° ENE 04:15:23 12° E 04:16:48 10° ESE visible
12 Dec 7.0 05:45:42 10° N 05:48:59 38° WNW 05:52:12 10° SW visible
12 Dec 6.6 16:20:43 10° SSE 16:24:25 76° ENE 16:28:06 10° N visible
13 Dec 6.4 05:20:05 10° N 05:23:36 86° WNW 05:27:03 10° SSW visible
13 Dec 9.9 17:30:24 10° SW 17:32:34 15° W 17:34:44 10° NW visible
14 Dec 7.9 04:54:48 10° NNE 04:58:08 40° E 05:01:24 10° S visible
14 Dec 8.8 17:03:43 10° SSW 17:06:58 29° W 17:10:14 10° NW visible
15 Dec 9.3 04:29:58 10° NE 04:32:34 19° E 04:35:07 10° SE visible
15 Dec 7.6 06:03:05 10° NNW 06:05:55 23° WNW 06:08:42 10° SW visible
15 Dec 7.2 16:37:49 10° S 16:41:29 63° W 16:45:07 10° NNW visible
16 Dec 6.6 05:37:14 10° N 05:40:36 48° WNW 05:43:55 10° SSW visible
17 Dec 6.7 05:11:43 10° NNE 05:15:12 72° ESE 05:18:37 10° S visible
17 Dec 9.7 17:21:31 10° SW 17:24:08 18° W 17:26:43 10° NW visible
